Regional Weather Roundup
Issued by NWS Cleveland, OH

Home | Current Version | Previous Version | Graphics & Text | Print | Product List | Glossary On
Versions: 1 2 3 4 5 6 7 8 9 10 11 12 13 14 15 16 17 18 19 20 21 22 23 24 25 26 27 28 29 30 31 32 33 34 35 36 37 38 39 40 41 42 43 44 45 46 47 48 49 50
000
ASUS41 KCLE 201712
RWRCLE
OHIO REGIONAL WEATHER ROUNDUP
NATIONAL WEATHER SERVICE WILMINGTON, OH
100 PM EDT THU JUL 20 2017

NOTE: "FAIR" INDICATES FEW OR NO CLOUDS BELOW 12,000 FEET WITH NO
SIGNIFICANT WEATHER AND/OR OBSTRUCTIONS TO VISIBILITY.

OHZ001>008-015>018-024>027-034-035-043-044-201800-
   NORTHWEST OHIO

CITY           SKY/WX    TMP DP  RH WIND       PRES   REMARKS
DEFIANCE       FAIR     N/A N/A N/A SW9       30.00R
FINDLAY        FAIR      84  68  58 SW9       30.00F
TOLEDO EXPRESS FAIR      84  68  58 SW9       30.00R
TOLEDO EXEC    FAIR      82  67  60 S3        30.00F
LIMA           FAIR      82  69  64 SW14      30.03F
$$

OHZ009>014-019>023-028>033-038-089-201800-
   NORTHEAST OHIO

CITY           SKY/WX    TMP DP  RH WIND       PRES   REMARKS
CLE-HOPKINS    PTSUNNY   85  71  63 NW18      30.02S HX  90
CLE-LAKEFRONT  PTSUNNY   80  72  76 W12       29.99F
CUY CO. ARPT   CLOUDY    82  68  61 NW16G25   30.02F
LORAIN-ELYRIA  FAIR      83  66  56 NW13G21   30.02F
ASHTABULA      FAIR      85  72  65 W21G29    30.00F HX  91
AKRON-CANTON   FAIR      86  70  58 SW15      30.03  HX  90
WOOSTER        FAIR      85  71  63 W10G21    30.04F HX  90
MANSFIELD      PTSUNNY   83  70  64 W13G20    30.05F
YOUNGSTOWN     CLOUDY    84  69  60 W10       30.02
$$

OHZ042-051>053-060>062-070>072-077>081-201800-
  SOUTHWEST OHIO

CITY           SKY/WX    TMP DP  RH WIND       PRES   REMARKS
CINC-COVINGTON CLOUDY    86  76  71 W12       30.11F HX  96
CINC-LUNKEN    FAIR      85  76  74 S9        30.10F HX  94
HAMILTON       FAIR      87  76  69 W7        30.10F HX  97
DAYTON         PTSUNNY   85  74  69 SW16      30.09F HX  92
WRIGHT-PAT AFB PTSUNNY   86  76  72 SW13      30.07F HX  97
DAYTON GENERAL FAIR      84  72  67 W12       30.09F
WILMINGTON     FAIR      85  77  77 W13       30.09F HX  95
$$

OHZ036-037-039>041-045>050-054>059-063>069-073>076-082>088-201800-
  CENTRAL AND SOUTHEAST OHIO

CITY           SKY/WX    TMP DP  RH WIND       PRES   REMARKS
COLUMBUS       PTSUNNY   87  74  64 SW14      30.05F HX  95
OSU AIRPORT    FAIR      86  73  65 W10       30.06F HX  93
BOLTON FIELD   PTSUNNY   86  77  74 W6        30.06F HX  97
RICKENBACK AFB PTSUNNY   86  73  64 SW9       30.06F HX  93
NEWARK         FAIR      87  72  60 W15       30.05F HX  93
MARION         FAIR      85  67  54 W8        30.05F
LANCASTER      FAIR      85  75  72 SW9       30.07F HX  93
ZANESVILLE     FAIR      86  70  58 W10       30.07F HX  90
NEW PHILLY     FAIR      87  73  62 SW7       30.04F HX  94
$$




USA.gov is the U.S. government's official web portal to all federal, state and local government web resources and services.